| time (UTC) | temp F | wind direction | speed knots | gust knots | rain 1hr in | rain 24hr in | rain mn in | humidity % | barometer mb |
| 20260510185845 | 80 | 110 | 0.9 | 7.8 | 0.00 | 0.15 | 0.00 | 73 | 1016.3 |
| 20260510185339 | 80 | 209 | 2.6 | 7.8 | 0.00 | 0.15 | 0.00 | 73 | 1016.3 |
| 20260510184336 | 80 | 196 | 5.2 | 7.0 | 0.00 | 0.17 | 0.00 | 74 | 1016.3 |
| 20260510182829 | 80 | 194 | 1.7 | 7.0 | 0.00 | 0.20 | 0.00 | 73 | 1016.6 |
| 20260510181320 | 79 | 189 | 3.5 | 7.0 | 0.00 | 0.22 | 0.00 | 71 | 1017.0 |
| 20260510175819 | 79 | 199 | 3.5 | 7.0 | 0.00 | 0.22 | 0.00 | 71 | 1017.0 |
| 20260510175313 | 79 | 141 | 2.6 | 6.1 | 0.00 | 0.26 | 0.00 | 69 | 1017.0 |
| 20260510173808 | 79 | 177 | 1.7 | 7.0 | 0.00 | 0.33 | 0.00 | 72 | 1017.3 |
| 20260510172801 | 79 | 264 | 0.9 | 8.7 | 0.00 | 0.43 | 0.00 | 72 | 1017.0 |
| 20260510171758 | 79 | 173 | 3.5 | 6.1 | 0.00 | 0.46 | 0.00 | 72 | 1017.3 |
| 20260510165749 | 78 | 221 | 1.7 | 8.7 | 0.00 | 0.67 | 0.00 | 73 | 1017.6 |
| 20260510164241 | 79 | 22 | 3.5 | 7.0 | 0.00 | 0.71 | 0.00 | 72 | 1017.3 |
| 20260510163234 | 78 | 201 | 2.6 | 7.8 | 0.00 | 0.72 | 0.00 | 74 | 1017.3 |
| 20260510161730 | 78 | 351 | 1.7 | 7.0 | 0.00 | 0.78 | 0.00 | 74 | 1017.6 |
| 20260510160724 | 77 | 29 | 1.7 | 7.0 | 0.00 | 0.97 | 0.00 | 76 | 1017.3 |
| 20260510155720 | 77 | 244 | 2.6 | 9.6 | 0.00 | 1.07 | 0.00 | 77 | 1017.6 |
| 20260510155216 | 75 | 144 | 0.9 | 8.7 | 0.00 | 1.08 | 0.00 | 78 | 1017.0 |
| 20260510153710 | 75 | 189 | 3.5 | 6.1 | 0.00 | 1.09 | 0.00 | 79 | 1017.3 |
| 20260510152705 | 74 | 248 | 2.6 | 9.6 | 0.00 | 1.09 | 0.00 | 81 | 1017.3 |
| 20260510151702 | 74 | 352 | 6.1 | 8.7 | 0.00 | 1.09 | 0.00 | 82 | 1017.3 |
| 20260510150656 | 74 | 9 | 2.6 | 7.0 | 0.00 | 1.09 | 0.00 | 82 | 1017.3 |
| 20260510145653 | 74 | 21 | 2.6 | 6.1 | 0.00 | 1.09 | 0.00 | 83 | 1017.3 |
| 20260510144647 | 73 | 182 | 0.0 | 8.7 | 0.00 | 1.09 | 0.00 | 84 | 1017.3 |
| 20260510143643 | 74 | 119 | 1.7 | 7.0 | 0.00 | 1.10 | 0.00 | 84 | 1017.3 |
| 20260510142637 | 72 | 342 | 5.2 | 7.8 | 0.00 | 1.11 | 0.00 | 86 | 1017.0 |
| 20260510141636 | 72 | 18 | 1.7 | 7.8 | 0.00 | 1.12 | 0.00 | 88 | 1017.3 |
| 20260510140625 | 71 | 322 | 2.6 | 7.8 | 0.00 | 1.14 | 0.00 | 89 | 1017.0 |
| 20260510135622 | 71 | 195 | 2.6 | 7.0 | 0.00 | 1.28 | 0.00 | 90 | 1017.3 |
| 20260510134613 | 70 | 322 | 1.7 | 5.2 | 0.00 | 1.35 | 0.00 | 92 | 1017.3 |
| 20260510133609 | 70 | 351 | 3.5 | 7.0 | 0.00 | 1.60 | 0.00 | 93 | 1017.3 |
| 20260510132603 | 69 | 26 | 1.7 | 7.8 | 0.00 | 1.78 | 0.00 | 94 | 1017.0 |
| 20260510131601 | 69 | 352 | 4.3 | 6.1 | 0.00 | 1.83 | 0.00 | 94 | 1017.0 |
| 20260510130554 | 68 | 15 | 3.5 | 6.1 | 0.00 | 1.83 | 0.00 | 95 | 1017.0 |
| 20260510125551 | 68 | 320 | 3.5 | 8.7 | 0.00 | 1.83 | 0.00 | 95 | 1016.6 |
| 20260510125045 | 68 | 337 | 5.2 | 7.8 | 0.00 | 1.83 | 0.00 | 95 | 1016.3 |
| 20260510123541 | 68 | 45 | 0.9 | 6.1 | 0.00 | 1.83 | 0.00 | 95 | 1016.3 |
| 20260510123036 | 68 | 268 | 1.7 | 3.5 | 0.00 | 1.83 | 0.00 | 95 | 1015.9 |
| 20260510121532 | 68 | 126 | 0.0 | 3.5 | 0.00 | 1.83 | 0.00 | 95 | 1015.9 |
| 20260510120526 | 67 | 156 | 0.9 | 1.7 | 0.00 | 1.83 | 0.00 | 95 | 1015.6 |
| 20260510115522 | 67 | 250 | 0.0 | 3.5 | 0.00 | 1.83 | 0.00 | 96 | 1015.6 |
| 20260510114516 | 67 | 192 | 3.5 | 5.2 | 0.00 | 1.83 | 0.00 | 96 | 1015.3 |
| 20260510113513 | 67 | 163 | 1.7 | 5.2 | 0.00 | 1.83 | 0.00 | 96 | 1015.3 |
| 20260510112507 | 67 | 134 | 0.9 | 5.2 | 0.00 | 1.83 | 0.00 | 96 | 1015.3 |
| 20260510111504 | 67 | 123 | 1.7 | 6.1 | 0.00 | 1.83 | 0.00 | 96 | 1015.3 |
| 20260510110458 | 66 | 340 | 0.9 | 2.6 | 0.00 | 1.83 | 0.00 | 95 | 1014.9 |
| 20260510105455 | 66 | 301 | 0.0 | 3.5 | 0.00 | 1.83 | 0.00 | 95 | 1014.9 |
| 20260510104449 | 66 | 164 | 0.9 | 2.6 | 0.00 | 1.83 | 0.00 | 95 | 1014.6 |
| 20260510103446 | 66 | 175 | 0.9 | 2.6 | 0.00 | 1.83 | 0.00 | 95 | 1014.2 |
| 20260510102438 | 66 | 24 | 0.0 | 1.7 | 0.00 | 1.83 | 0.00 | 95 | 1014.2 |
| 20260510101435 | 66 | 181 | 0.9 | 3.5 | 0.00 | 1.83 | 0.00 | 95 | 1014.2 |
| 20260510100929 | 66 | 272 | 0.0 | 1.7 | 0.00 | 1.83 | 0.00 | 95 | 1013.9 |
| 20260510095426 | 67 | 199 | 0.0 | 2.6 | 0.00 | 1.83 | 0.00 | 95 | 1013.9 |
| 20260510094419 | 67 | 24 | 0.9 | 3.5 | 0.00 | 1.83 | 0.00 | 94 | 1013.9 |
| 20260510093417 | 67 | 62 | 0.9 | 2.6 | 0.00 | 1.83 | 0.00 | 94 | 1013.9 |
| 20260510091407 | 67 | 21 | 1.7 | 7.0 | 0.00 | 1.83 | 0.00 | 94 | 1013.9 |
| 20260510090401 | 67 | 308 | 5.2 | 7.8 | 0.00 | 1.83 | 0.00 | 94 | 1013.6 |
| 20260510085401 | 67 | 15 | 3.5 | 8.7 | 0.00 | 1.83 | 0.00 | 94 | 1013.6 |
| 20260510084351 | 67 | 356 | 7.0 | 7.8 | 0.00 | 1.83 | 0.00 | 93 | 1013.6 |
| 20260510083347 | 68 | 356 | 4.3 | 8.7 | 0.00 | 1.83 | 0.00 | 93 | 1013.6 |
| 20260510082341 | 68 | 44 | 2.6 | 7.8 | 0.00 | 1.83 | 0.00 | 92 | 1013.6 |
| 20260510081337 | 68 | 339 | 2.6 | 7.0 | 0.00 | 1.83 | 0.00 | 91 | 1013.6 |
| 20260510080331 | 67 | 34 | 3.5 | 7.0 | 0.00 | 1.83 | 0.00 | 91 | 1013.6 |
| 20260510075330 | 67 | 39 | 2.6 | 6.1 | 0.00 | 1.83 | 0.00 | 92 | 1013.6 |
| 20260510074330 | 67 | 45 | 0.9 | 7.0 | 0.00 | 1.83 | 0.00 | 92 | 1013.6 |
| 20260510073326 | 67 | 32 | 2.6 | 7.0 | 0.00 | 1.83 | 0.00 | 92 | 1013.2 |
| 20260510072320 | 67 | 339 | 5.2 | 6.1 | 0.00 | 1.83 | 0.00 | 93 | 1013.2 |
| 20260510071317 | 67 | 20 | 1.7 | 3.5 | 0.00 | 1.83 | 0.00 | 94 | 1013.6 |
| 20260510070311 | 67 | 25 | 1.7 | 3.5 | 0.00 | 1.83 | 0.00 | 94 | 1013.6 |
| 20260510065308 | 67 | 349 | 1.7 | 2.6 | 0.00 | 1.83 | 0.00 | 94 | 1013.2 |
| 20260510064302 | 67 | 318 | 0.0 | 5.2 | 0.00 | 1.83 | 0.00 | 95 | 1013.6 |
| 20260510063759 | 67 | 342 | 1.7 | 5.2 | 0.00 | 1.83 | 0.00 | 95 | 1012.9 |
| 20260510062253 | 67 | 109 | 0.9 | 3.5 | 0.00 | 1.83 | 0.00 | 95 | 1013.2 |
| 20260510061250 | 67 | 322 | 0.0 | 3.5 | 0.00 | 1.83 | 0.00 | 95 | 1013.2 |
| 20260510060243 | 66 | 39 | 0.0 | 1.7 | 0.00 | 1.83 | 0.00 | 95 | 1013.6 |
| 20260510055740 | 66 | 280 | 0.0 | 0.0 | 0.00 | 1.83 | 0.00 | 95 | 1013.2 |
| 20260510054233 | 66 | 39 | 0.0 | 0.0 | 0.00 | 1.83 | 0.00 | 95 | 1012.9 |
| 20260510053229 | 66 | 175 | 0.0 | 0.9 | 0.00 | 1.83 | 0.00 | 95 | 1013.2 |
| 20260510051221 | 67 | 181 | 0.0 | 0.0 | 0.00 | 1.83 | 0.00 | 96 | 1013.2 |
| 20260510050214 | 66 | 191 | 0.0 | 5.2 | 0.00 | 1.83 | 0.00 | 96 | 1013.6 |
| 20260510045211 | 66 | 186 | 3.5 | 3.5 | 0.00 | 1.83 | 1.89 | 96 | 1013.2 |
| 20260510044205 | 66 | 168 | 0.0 | 1.7 | 0.00 | 1.83 | 1.89 | 96 | 1013.6 |
| 20260510043703 | 66 | 185 | 0.0 | 5.2 | 0.00 | 1.83 | 1.89 | 96 | 1013.6 |
| 20260510042156 | 66 | 204 | 0.0 | 2.6 | 0.00 | 1.83 | 1.89 | 96 | 1013.6 |
| 20260510041153 | 66 | 192 | 0.0 | 2.6 | 0.00 | 1.83 | 1.89 | 96 | 1013.2 |
| 20260510040147 | 66 | 188 | 0.0 | 1.7 | 0.00 | 1.83 | 1.89 | 96 | 1013.6 |
| 20260510035645 | 66 | 243 | 0.0 | 2.6 | 0.00 | 1.83 | 1.89 | 96 | 1014.2 |
| 20260510034138 | 67 | 327 | 0.9 | 2.6 | 0.00 | 1.83 | 1.89 | 96 | 1014.2 |
| 20260510033135 | 67 | 185 | 0.0 | 2.6 | 0.00 | 1.83 | 1.89 | 96 | 1014.2 |
| 20260510032129 | 67 | 175 | 0.0 | 0.0 | 0.00 | 1.83 | 1.89 | 96 | 1014.2 |
| 20260510031627 | 67 | 199 | 0.0 | 0.0 | 0.00 | 1.83 | 1.89 | 96 | 1014.2 |
| 20260510030120 | 67 | 192 | 0.0 | 0.0 | 0.00 | 1.83 | 1.89 | 96 | 1014.2 |
| 20260510025118 | 67 | 192 | 0.0 | 0.0 | 0.00 | 1.83 | 1.89 | 96 | 1014.2 |
| 20260510024112 | 67 | 188 | 0.0 | 1.7 | 0.00 | 1.83 | 1.89 | 96 | 1014.2 |
| 20260510023109 | 67 | 331 | 0.0 | 0.9 | 0.00 | 1.83 | 1.89 | 96 | 1013.9 |
| 20260510022605 | 67 | 212 | 0.0 | 1.7 | 0.00 | 1.83 | 1.89 | 96 | 1013.6 |
| 20260510021100 | 67 | 178 | 0.0 | 1.7 | 0.00 | 1.83 | 1.89 | 96 | 1013.6 |
| 20260510020055 | 67 | 43 | 0.0 | 6.1 | 0.00 | 1.83 | 1.89 | 96 | 1013.6 |
| 20260510015052 | 67 | 184 | 0.9 | 7.8 | 0.00 | 1.83 | 1.89 | 96 | 1013.6 |
| 20260510014045 | 67 | 206 | 0.0 | 6.1 | 0.00 | 1.83 | 1.89 | 96 | 1013.2 |
| 20260510013543 | 67 | 212 | 2.6 | 7.0 | 0.00 | 1.83 | 1.89 | 96 | 1013.6 |
| 20260510012035 | 67 | 188 | 0.9 | 6.1 | 0.00 | 1.83 | 1.89 | 96 | 1013.2 |
| 20260510011033 | 67 | 199 | 0.9 | 6.1 | 0.00 | 1.83 | 1.89 | 96 | 1013.2 |
| 20260510010029 | 67 | 198 | 1.7 | 3.5 | 0.00 | 1.83 | 1.89 | 96 | 1013.2 |
| 20260510005024 | 67 | 207 | 0.9 | 6.1 | 0.00 | 1.83 | 1.89 | 96 | 1013.6 |
| 20260510004018 | 67 | 191 | 0.9 | 3.5 | 0.00 | 1.83 | 1.89 | 96 | 1013.6 |
| 20260510003516 | 67 | 174 | 0.9 | 3.5 | 0.03 | 1.83 | 1.89 | 96 | 1013.2 |
| 20260510002009 | 67 | 104 | 0.0 | 5.2 | 0.04 | 1.83 | 1.89 | 96 | 1013.2 |
| 20260510001006 | 67 | 192 | 0.0 | 3.5 | 0.04 | 1.83 | 1.89 | 96 | 1013.2 |
| 20260510000000 | 67 | 183 | 1.7 | 2.6 | 0.04 | 1.83 | 1.89 | 96 | 1012.9 |
| 20260509234957 | 67 | 184 | 1.7 | 2.6 | 0.05 | 1.83 | 1.89 | 96 | 1013.2 |
| 20260509234452 | 67 | 155 | 1.7 | 2.6 | 0.05 | 1.83 | 1.89 | 96 | 1013.6 |
| 20260509232947 | 67 | 183 | 0.9 | 1.7 | 0.02 | 1.80 | 1.86 | 96 | 1013.6 |
| 20260509231941 | 67 | 177 | 0.9 | 0.9 | 0.01 | 1.79 | 1.85 | 96 | 1013.6 |
| 20260509225932 | 67 | 192 | 0.0 | 3.5 | 0.01 | 1.80 | 1.85 | 96 | 1013.2 |
| 20260509224929 | 67 | 178 | 0.0 | 0.0 | 0.00 | 1.79 | 1.83 | 96 | 1012.9 |
| 20260509223922 | 67 | 177 | 0.0 | 1.7 | 0.01 | 1.83 | 1.83 | 96 | 1013.2 |
| 20260509223422 | 67 | 191 | 0.0 | 0.0 | 0.01 | 1.85 | 1.83 | 96 | 1013.2 |
| 20260509221914 | 67 | 177 | 0.0 | 2.6 | 0.01 | 1.86 | 1.83 | 96 | 1012.6 |
| 20260509221412 | 67 | 216 | 0.0 | 2.6 | 0.01 | 1.86 | 1.83 | 96 | 1012.6 |
| 20260509215905 | 67 | 173 | 0.9 | 2.6 | 0.01 | 1.87 | 1.83 | 96 | 1012.6 |
| 20260509215402 | 67 | 178 | 0.0 | 2.6 | 0.01 | 1.89 | 1.83 | 96 | 1012.6 |
| 20260509213855 | 67 | 325 | 0.0 | 6.1 | 0.00 | 1.92 | 1.82 | 96 | 1012.9 |
| 20260509213354 | 67 | 184 | 1.7 | 7.8 | 0.00 | 2.03 | 1.82 | 96 | 1012.6 |
| 20260509212346 | 67 | 181 | 1.7 | 7.0 | 0.01 | 2.13 | 1.82 | 96 | 1012.2 |
| 20260509210843 | 67 | 188 | 2.6 | 3.5 | 0.02 | 2.39 | 1.82 | 96 | 1012.6 |
| 20260509205836 | 67 | 174 | 0.0 | 5.2 | 0.03 | 2.60 | 1.82 | 96 | 1012.2 |
| 20260509204834 | 67 | 173 | 0.9 | 6.1 | 0.05 | 2.84 | 1.82 | 96 | 1012.2 |
| 20260509203827 | 66 | 187 | 1.7 | 2.6 | 0.06 | 3.19 | 1.82 | 96 | 1012.2 |
| 20260509202824 | 66 | 199 | 0.9 | 3.5 | 0.07 | 3.21 | 1.82 | 96 | 1012.6 |
| 20260509202319 | 66 | 198 | 0.9 | 0.9 | 0.07 | 3.20 | 1.81 | 96 | 1013.2 |
| 20260509200815 | 66 | 131 | 0.0 | 2.6 | 0.06 | 3.19 | 1.80 | 96 | 1013.6 |
| 20260509195809 | 66 | 181 | 1.7 | 3.5 | 0.05 | 3.18 | 1.79 | 96 | 1013.6 |
| 20260509195307 | 66 | 183 | 1.7 | 2.6 | 0.03 | 3.16 | 1.77 | 96 | 1013.2 |
| 20260509193759 | 65 | 199 | 0.9 | 2.6 | 0.04 | 3.15 | 1.76 | 96 | 1013.6 |
| 20260509192756 | 66 | 171 | 0.0 | 1.7 | 0.06 | 3.14 | 1.75 | 96 | 1013.9 |
| 20260509191749 | 66 | 178 | 0.0 | 2.6 | 0.06 | 3.13 | 1.74 | 96 | 1013.9 |
| 20260509191247 | 66 | 213 | 0.0 | 2.6 | 0.07 | 3.13 | 1.74 | 96 | 1013.6 |